DAL2227 KJFK-KATL

Flight info

Callsign DAL2227
Flight time N/A
Altitude 36000
Route RBV Q430 BYRDD J48 MOL FLASK OZZZI2
Aircraft A321/M-SDE3FGHIRWY/LB1

Departure

Time 2026-05-04 22:30
Airport John F. Kennedy International Airport (KJFK)

Arrival

Time N/A
Airport Hartsfield Jackson Atlanta International Airport (KATL)
Time Latitude Longitude Altitude Speed Heading
2026-05-04 21:55 40.63612 -73.78020 16 ft 0 kts 263°
2026-05-04 22:04 40.63612 -73.78019 16 ft 0 kts 263°
2026-05-04 22:18 40.63614 -73.77996 16 ft 8 kts 277°
2026-05-04 22:18 40.63609 -73.77974 20 ft 9 kts 315°
2026-05-04 22:18 40.63597 -73.77964 19 ft 7 kts 353°
2026-05-04 22:18 40.63596 -73.77964 19 ft 30 kts 353°
2026-05-04 22:22 40.63602 -73.77965 20 ft 2 kts 353°
2026-05-04 22:22 40.63626 -73.77968 16 ft 7 kts 357°
2026-05-04 22:22 40.63665 -73.77931 16 ft 7 kts 71°
2026-05-04 22:22 40.63645 -73.77892 17 ft 5 kts 158°
2026-05-04 22:23 40.63600 -73.77880 16 ft 9 kts 165°
2026-05-04 22:23 40.63554 -73.77828 16 ft 9 kts 124°
2026-05-04 22:23 40.63523 -73.77762 16 ft 8 kts 122°
2026-05-04 22:23 40.63532 -73.77684 17 ft 10 kts 35°
2026-05-04 22:24 40.63595 -73.77638 17 ft 12 kts 30°
2026-05-04 22:24 40.63670 -73.77580 16 ft 12 kts 31°
2026-05-04 22:24 40.63745 -73.77520 16 ft 14 kts 31°
2026-05-04 22:24 40.63831 -73.77453 16 ft 14 kts 31°
2026-05-04 22:25 40.63920 -73.77384 18 ft 15 kts 30°
2026-05-04 22:25 40.64016 -73.77309 17 ft 17 kts 31°
2026-05-04 22:25 40.64115 -73.77232 17 ft 16 kts 30°
2026-05-04 22:25 40.64206 -73.77160 17 ft 15 kts 31°
2026-05-04 22:26 40.64300 -73.77086 17 ft 16 kts 31°
2026-05-04 22:26 40.64398 -73.77014 16 ft 16 kts 26°
2026-05-04 22:26 40.64502 -73.76987 16 ft 15 kts
2026-05-04 22:26 40.64591 -73.76927 16 ft 14 kts 31°
2026-05-04 22:27 40.64664 -73.76867 18 ft 15 kts 31°
2026-05-04 22:27 40.64759 -73.76791 20 ft 15 kts 31°
2026-05-04 22:27 40.64844 -73.76725 17 ft 15 kts 29°
2026-05-04 22:27 40.64936 -73.76655 16 ft 15 kts 30°
2026-05-04 22:28 40.65022 -73.76588 16 ft 14 kts 30°
2026-05-04 22:28 40.65098 -73.76517 16 ft 13 kts 59°
2026-05-04 22:28 40.65076 -73.76415 16 ft 12 kts 118°
2026-05-04 22:28 40.65036 -73.76350 16 ft 6 kts 168°
2026-05-04 22:29 40.65011 -73.76365 16 ft 2 kts 210°
2026-05-04 22:29 40.64936 -73.76422 16 ft 37 kts 210°
2026-05-04 22:29 40.64513 -73.76753 16 ft 100 kts 211°
2026-05-04 22:29 40.63768 -73.77334 21 ft 146 kts 211°
2026-05-04 22:30 40.62852 -73.78103 324 ft 158 kts 209°
2026-05-04 22:30 40.61920 -73.78873 936 ft 159 kts 212°
2026-05-04 22:30 40.60946 -73.79607 1547 ft 163 kts 214°
2026-05-04 22:30 40.59946 -73.80412 1901 ft 178 kts 216°
2026-05-04 22:31 40.58858 -73.81301 2129 ft 195 kts 215°
2026-05-04 22:31 40.57645 -73.82286 2380 ft 215 kts 216°
2026-05-04 22:31 40.56449 -73.83632 2586 ft 238 kts 234°
2026-05-04 22:31 40.55451 -73.85421 3282 ft 247 kts 238°
2026-05-04 22:32 40.54470 -73.87287 4165 ft 248 kts 238°
2026-05-04 22:32 40.53488 -73.89169 5044 ft 252 kts 238°
2026-05-04 22:32 40.52487 -73.91072 5930 ft 254 kts 238°
2026-05-04 22:32 40.51465 -73.92987 6776 ft 257 kts 238°
2026-05-04 22:33 40.50419 -73.94919 7550 ft 261 kts 239°
2026-05-04 22:33 40.49350 -73.96875 8326 ft 265 kts 239°
2026-05-04 22:33 40.48268 -73.98859 9117 ft 269 kts 239°
2026-05-04 22:33 40.47170 -74.00871 9892 ft 274 kts 240°